Change the Weather History Date:

Friday, October 26, 2012

  Actual Average Record
Temperature  
Mean Temperature 56 °F -  
Max Temperature 63 °F 61 °F 81 °F (1963)
Min Temperature 48 °F 38 °F 20 °F (1952)
Degree Days  
Heating Degree Days 10    
Growing Degree Days 6 (Base 50)    
Moisture  
Dew Point 48 °F    
Average Humidity 81    
Maximum Humidity 90    
Minimum Humidity 69    
Precipitation  
Precipitation 0.05 in - - ()
Sea Level Pressure  
Sea Level Pressure 30.08 in    
Wind  
Wind Speed 5 mph (North)    
Max Wind Speed 14 mph    
Max Gust Speed 23 mph    
Visibility 10 miles    
Events Rain    
Averages and records for this station are not official NWS values.
T = Trace of Precipitation, MM = Missing Value Source: NWS Daily Summary

Daily Weather History Graph

Daily Weather History Graph

Search for Another Location

Airport or City:

Trip Planner

Search our weather history database for the weather conditions in past years. The results will help you decide how hot, cold, wet, or windy it might be!

Date:

Astronomy

Oct. 26, 2012 Rise Set
Actual Time 7:52 AM EDT 6:34 PM EDT
Civil Twilight 7:24 AM EDT 7:01 PM EDT
Nautical Twilight 6:53 AM EDT 7:33 PM EDT
Astronomical Twilight 6:21 AM EDT 8:05 PM EDT
Moon 4:49 PM EDT (10/26) 4:47 AM EDT (10/26)
Length of Visible Light 11h 37m
Length of Day
10h 41m
Waxing Gibbous, 91% of the Moon is Illuminated
Oct 26
Waxing Gibbous
Oct 29
Full
Nov 6
Last Quarter
Nov 13
New
Nov 20
First Quarter

Hourly Weather History & Observations

Time (EDT) Temp. Dew Point Humidity Pressure Visibility Wind Dir Wind Speed Gust Speed Precip Events Conditions
2:54 AM 48.0 °F 44.1 °F 86% 29.99 in 10.0 mi NW 3.5 mph - N/A   Clear
3:54 AM 50.0 °F 46.0 °F 86% 29.99 in 10.0 mi Calm Calm - N/A   Clear
4:54 AM 50.0 °F 46.0 °F 86% 29.99 in 10.0 mi Calm Calm - N/A   Clear
5:54 AM 48.0 °F 45.0 °F 89% 30.01 in 10.0 mi Calm Calm - N/A   Clear
6:54 AM 50.0 °F 46.9 °F 89% 30.03 in 10.0 mi Calm Calm - N/A   Scattered Clouds
7:54 AM 48.9 °F 46.0 °F 90% 30.05 in 10.0 mi Calm Calm - N/A   Scattered Clouds
8:54 AM 53.1 °F 48.9 °F 86% 30.07 in 10.0 mi Calm Calm - N/A   Clear
9:54 AM 61.0 °F 54.0 °F 78% 30.09 in 10.0 mi NW 6.9 mph - N/A   Overcast
10:12 AM 60.8 °F 55.4 °F 82% 30.11 in 10.0 mi NNW 9.2 mph - N/A   Overcast
10:23 AM 59.0 °F 53.6 °F 82% 30.12 in 9.0 mi NW 11.5 mph - N/A   Overcast
10:49 AM 57.2 °F 53.6 °F 88% 30.12 in 10.0 mi NW 9.2 mph - N/A   Overcast
10:54 AM 57.9 °F 53.1 °F 84% 30.12 in 10.0 mi North 10.4 mph - N/A   Overcast
11:30 AM 59.0 °F 51.8 °F 77% 30.11 in 10.0 mi North 6.9 mph - N/A   Overcast
11:54 AM 60.1 °F 52.0 °F 75% 30.11 in 10.0 mi NNE 6.9 mph - N/A   Partly Cloudy
12:24 PM 60.8 °F 51.8 °F 72% 30.11 in 10.0 mi NE 4.6 mph - N/A   Mostly Cloudy
12:54 PM 63.0 °F 53.1 °F 70% 30.11 in 10.0 mi North 5.8 mph - N/A   Overcast
1:54 PM 60.1 °F 50.0 °F 69% 30.08 in 10.0 mi North 10.4 mph - N/A   Overcast
2:54 PM 57.0 °F 48.9 °F 74% 30.09 in 10.0 mi NNW 9.2 mph - N/A   Overcast
3:54 PM 55.0 °F 46.9 °F 74% 30.09 in 10.0 mi North 13.8 mph 21.9 mph N/A   Overcast
4:24 PM 53.6 °F 46.4 °F 77% 30.10 in 10.0 mi North 12.7 mph 23.0 mph N/A   Overcast
4:54 PM 53.1 °F 46.9 °F 80% 30.11 in 10.0 mi North 6.9 mph - N/A   Overcast
5:54 PM 52.0 °F 46.0 °F 80% 30.10 in 10.0 mi North 9.2 mph 18.4 mph N/A   Overcast
6:39 PM 51.8 °F 44.6 °F 76% 30.09 in 10.0 mi NNE 13.8 mph 23.0 mph N/A   Overcast
6:54 PM 52.0 °F 45.0 °F 77% 30.10 in 10.0 mi North 11.5 mph 18.4 mph N/A   Overcast
7:54 PM 52.0 °F 45.0 °F 77% 30.12 in 10.0 mi North 13.8 mph 19.6 mph N/A   Overcast
8:54 PM 51.1 °F 45.0 °F 80% 30.11 in 10.0 mi NNE 9.2 mph - N/A   Overcast
9:54 PM 50.0 °F 46.0 °F 86% 30.09 in 7.0 mi NNE 6.9 mph - 0.02 in Rain Light Rain
10:22 PM 50.0 °F 46.4 °F 87% 30.08 in 10.0 mi Variable 4.6 mph - 0.01 in Rain Light Rain
11:31 PM 50.0 °F 46.4 °F 87% 30.07 in 10.0 mi North 6.9 mph - 0.02 in Rain Light Rain
11:54 PM 50.0 °F 46.9 °F 89% 30.06 in 8.0 mi NE 8.1 mph - 0.03 in Rain Light Rain